Hobbs, NM

5:37 PM MDT on September 26, 2016 (GMT -0600)
Lea County Regional

Weather History for KHOB - May, 2013

Change the Weather History Date:

Wednesday, May 1, 2013

  Actual Average Record
Temperature  
Mean Temperature 62 °F -  
Max Temperature 82 °F 81 °F 93 °F (2001)
Min Temperature 41 °F 51 °F 39 °F (2014)
Degree Days  
Heating Degree Days 3    
Growing Degree Days 12 (Base 50)    
Moisture  
Dew Point 39 °F    
Average Humidity 43    
Maximum Humidity 71    
Minimum Humidity 12    
Precipitation  
Precipitation 0.00 in - - ()
Sea Level Pressure  
Sea Level Pressure 29.96 in    
Wind  
Wind Speed 13 mph (NNE)    
Max Wind Speed 37 mph    
Max Gust Speed 46 mph    
Visibility 8 miles    
Events      
Averages and records for this station are not official NWS values.
T = Trace of Precipitation, MM = Missing Value Source: NWS Daily Summary

Daily Weather History Graph

Daily Weather History Graph

Search for Another Location

Airport or City:

Trip Planner

Search our weather history database for the weather conditions in past years. The results will help you decide how hot, cold, wet, or windy it might be!

Date:

Astronomy

May. 01, 2013 Rise Set
Actual Time 6:05 AM MDT 7:34 PM MDT
Civil Twilight 5:39 AM MDT 8:01 PM MDT
Nautical Twilight 5:07 AM MDT 8:32 PM MDT
Astronomical Twilight 4:35 AM MDT 9:05 PM MDT
Moon 12:45 AM MDT (5/1) 11:46 AM MDT (5/1)
Length of Visible Light 14h 21m
Length of Day
13h 29m
Waning Gibbous, 58% of the Moon is Illuminated
May 1
Waning Gibbous
May 2
Last Quarter
May 9
New
May 17
First Quarter
May 24
Full

Hourly Weather History & Observations

Time (MDT) Temp. Windchill Dew Point Humidity Pressure Visibility Wind Dir Wind Speed Gust Speed Precip Events Conditions
12:15 AM 75.2 °F - 24.8 °F 15% 29.79 in 10.0 mi Calm Calm - N/A   Clear
12:35 AM 73.4 °F - 46.4 °F 38% 29.79 in 10.0 mi East 13.8 mph 25.3 mph N/A   Clear
1:15 AM 73.4 °F - 50.0 °F 44% 29.80 in 10.0 mi ESE 19.6 mph 27.6 mph N/A   Clear
1:35 AM 71.6 °F - 48.2 °F 43% 29.80 in 10.0 mi ESE 15.0 mph 21.9 mph N/A   Clear
1:55 AM 69.8 °F - 48.2 °F 46% 29.81 in 10.0 mi ESE 12.7 mph - N/A   Clear
2:15 AM 69.8 °F - 46.4 °F 43% 29.80 in 10.0 mi SE 13.8 mph - N/A   Clear
2:35 AM 69.8 °F - 46.4 °F 43% 29.80 in 10.0 mi SE 12.7 mph 16.1 mph N/A   Clear
3:15 AM 68.0 °F - 44.6 °F 43% 29.81 in 10.0 mi Calm Calm - N/A   Clear
3:35 AM 66.2 °F - 44.6 °F 46% 29.81 in 10.0 mi South 9.2 mph - N/A   Clear
3:55 AM 64.4 °F - 44.6 °F 49% 29.82 in 10.0 mi Calm Calm - N/A   Clear
4:15 AM 62.6 °F - 44.6 °F 52% 29.82 in 10.0 mi Calm Calm - N/A   Clear
4:35 AM 62.6 °F - 44.6 °F 52% 29.83 in 10.0 mi South 9.2 mph - N/A   Clear
4:55 AM 62.6 °F - 44.6 °F 52% 29.83 in 10.0 mi Calm Calm - N/A   Clear
5:50 AM 60.8 °F - 46.4 °F 59% 29.86 in 10.0 mi South 4.6 mph - N/A   Clear
6:50 AM 59.0 °F - 46.4 °F 63% 29.89 in 10.0 mi SW 5.8 mph - N/A   Clear
7:50 AM 68.0 °F - 48.2 °F 49% 29.91 in 10.0 mi SW 5.8 mph - N/A   Clear
8:50 AM 80.6 °F - 23.0 °F 12% 29.91 in 10.0 mi WNW 13.8 mph 21.9 mph N/A   Clear
9:50 AM 80.6 °F - 24.8 °F 13% 29.93 in 10.0 mi North 21.9 mph 28.8 mph N/A   Clear
10:50 AM 77.0 °F - 37.4 °F 24% 29.95 in 10.0 mi North 20.7 mph 27.6 mph N/A   Clear
11:50 AM 78.8 °F - 33.8 °F 20% 29.96 in 5.0 mi North 18.4 mph 26.5 mph N/A   Widespread Dust
12:50 PM 82.4 °F - 32.0 °F 16% 29.96 in 5.0 mi North 19.6 mph 26.5 mph N/A   Widespread Dust
1:50 PM 80.6 °F - 32.0 °F 17% 29.98 in 5.0 mi NNE 13.8 mph 25.3 mph N/A   Widespread Dust
2:45 PM 82.4 °F - 32.0 °F 16% 29.98 in 5.0 mi North 17.3 mph 24.2 mph N/A   Widespread Dust
3:50 PM 82.4 °F - 35.6 °F 19% 29.98 in 5.0 mi NNE 18.4 mph 25.3 mph N/A   Widespread Dust
5:50 PM 75.2 °F - 39.2 °F 27% 29.96 in 8.0 mi NE 18.4 mph 26.5 mph N/A   Clear
6:15 PM 73.4 °F - 39.2 °F 29% 29.96 in 10.0 mi NE 16.1 mph 25.3 mph N/A   Clear
6:35 PM 71.6 °F - 41.0 °F 33% 29.97 in 10.0 mi NE 17.3 mph 25.3 mph N/A   Clear
6:55 PM 69.8 °F - 41.0 °F 35% 29.97 in 10.0 mi NE 15.0 mph 24.2 mph N/A   Clear
7:35 PM 66.2 °F - 41.0 °F 40% 29.99 in 10.0 mi NE 19.6 mph 28.8 mph N/A   Clear
7:55 PM 64.4 °F - 41.0 °F 42% 30.01 in 10.0 mi NNE 23.0 mph 28.8 mph N/A   Clear
8:35 PM 59.0 °F - 41.0 °F 51% 30.06 in 10.0 mi NNE 25.3 mph 31.1 mph N/A   Clear
8:55 PM 57.2 °F - 39.2 °F 51% 30.08 in 9.0 mi NNE 27.6 mph 34.5 mph N/A   Clear
9:35 PM 51.8 °F - 37.4 °F 58% 30.12 in 6.0 mi North 32.2 mph 41.4 mph N/A   Haze
9:55 PM 48.2 °F - 35.6 °F 62% 30.14 in 6.0 mi North 29.9 mph 40.3 mph N/A   Haze
10:15 PM 46.4 °F 36.9 °F 35.6 °F 66% 30.16 in 5.0 mi North 32.2 mph 41.4 mph N/A   Haze
10:35 PM 44.6 °F 33.8 °F 35.6 °F 71% 30.18 in 5.0 mi North 36.8 mph 44.9 mph N/A   Haze
10:55 PM 44.6 °F 34.1 °F 33.8 °F 66% 30.20 in 5.0 mi North 34.5 mph 44.9 mph N/A   Haze
11:15 PM 44.6 °F 33.8 °F 32.0 °F 61% 30.23 in 5.0 mi North 36.8 mph 43.7 mph N/A   Haze
11:35 PM 42.8 °F 31.6 °F 32.0 °F 66% 30.23 in 5.0 mi North 34.5 mph 46.0 mph N/A   Haze
11:55 PM 41.0 °F 29.1 °F 32.0 °F 70% 30.26 in 5.0 mi North 34.5 mph 46.0 mph N/A   Haze